User: anonymous   Login
Location: Kitchener
(43.2612°N, 80.5078°W)
Time: 08:45:33
(UTC+02:00)
Language:

Iridium 57 - Orbit

View from above orbital plane
View from above orbital plane
View from above satellite
View from above satellite

Ground track
Ground track

The orbit data is extracted from the following two-line orbital elements,

1 25273U 98019B   17207.78276887 +.00000081 +00000-0 +21803-4 0  9993
2 25273 086.3961 270.7561 0002255 088.8468 271.2986 14.34269285011526
Epoch (UTC): 26 July 2017 18:47:11
Eccentricity: 0.0002255
inclination: 86.3961°
perigee height: 776 km
apogee height: 779 km
right ascension of ascending node: 270.7561°
argument of perigee: 88.8468°
revolutions per day: 14.34269285
mean anomaly at epoch: 271.2986°
orbit number at epoch: 1152

The dashed part of the orbit path shows where the satellite is in the earth's shadow,  

DLR